STARLINK-30309 (57632 NORAD) Tracking and Keplerian Element Data

This shows tracking and keplerian element data for the satellite.

Feedback or suggestion? Click here.




ElementValue
Catalog57632
NameSTARLINK-30309
Epoch Orbit2384
Epoch Day13.16662394
Epoch Year2024
RAAN48.7791
Inclination43.0031
Eccentricity8.03E-05
Argument of Perigee255.6511
Mean Anonmoly104.4242
Mean Motion15.02535367
Decay Rate-4.23E-06
L11 57632U 23122A 24013.16662394 -.00000423 00000+0 -16281-4 0 9992
L22 57632 43.0031 48.7791 0000803 255.6511 104.4242 15.02535367 23849



Live tracking and technical data element details for STARLINK-30309 (NORAD 57632). STARLINK-30309 can be tracked NOW for your location showing map with azimuth and elevation plus other details from your city location.







IsCatalogInMostPopularTable: catalog: 57632, numindb: 31
Update: records affected: 1



GetName: 57632 STARLINK-30309

Hit Count: updated at: Thu, 22 Feb 2024 02:00:10 GMT